| time (UTC) | temp F | wind direction | speed knots | gust knots | rain 1hr in | rain 24hr in | rain mn in | humidity % | barometer mb |
| 20260901175455 | 68 | 0 | 0.0 | 1.7 | 0.00 | 0.00 | 0.00 | 58 | 1015.3 |
| 20260901174956 | 67 | 200 | 0.9 | 3.5 | 0.00 | 0.00 | 0.00 | 58 | 1015.3 |
| 20260901174457 | 67 | 311 | 0.9 | 3.5 | 0.00 | 0.00 | 0.00 | 60 | 1015.3 |
| 20260901173955 | 66 | 355 | 0.9 | 4.3 | 0.00 | 0.00 | 0.00 | 58 | 1015.3 |
| 20260901173455 | 67 | 355 | 0.9 | 4.3 | 0.00 | 0.00 | 0.00 | 58 | 1015.3 |
| 20260901172953 | 67 | 98 | 0.0 | 2.6 | 0.00 | 0.00 | 0.00 | 58 | 1015.3 |
| 20260901172453 | 67 | 306 | 0.9 | 2.6 | 0.00 | 0.00 | 0.00 | 59 | 1015.2 |
| 20260901171955 | 66 | 306 | 0.9 | 2.6 | 0.00 | 0.00 | 0.00 | 59 | 1015.3 |
| 20260901171453 | 65 | 296 | 0.9 | 3.5 | 0.00 | 0.00 | 0.00 | 61 | 1015.2 |
| 20260901170954 | 65 | 296 | 1.7 | 6.1 | 0.00 | 0.00 | 0.00 | 62 | 1015.1 |
| 20260901170453 | 65 | 294 | 1.7 | 6.1 | 0.00 | 0.00 | 0.00 | 61 | 1015.1 |
| 20260901165953 | 66 | 278 | 1.7 | 6.1 | 0.00 | 0.00 | 0.00 | 62 | 1015.0 |
| 20260901165453 | 65 | 122 | 0.9 | 4.3 | 0.00 | 0.00 | 0.00 | 61 | 1014.9 |
| 20260901164954 | 66 | 186 | 0.0 | 4.3 | 0.00 | 0.00 | 0.00 | 61 | 1015.0 |
| 20260901164451 | 65 | 90 | 0.0 | 2.6 | 0.00 | 0.00 | 0.00 | 62 | 1015.0 |
| 20260901163950 | 65 | 252 | 0.9 | 2.6 | 0.00 | 0.00 | 0.00 | 61 | 1015.0 |
| 20260901163451 | 65 | 144 | 0.9 | 5.2 | 0.00 | 0.00 | 0.00 | 62 | 1015.0 |
| 20260901162952 | 65 | 145 | 1.7 | 5.2 | 0.00 | 0.00 | 0.00 | 61 | 1015.0 |
| 20260901162452 | 65 | 161 | 0.9 | 5.2 | 0.00 | 0.00 | 0.00 | 64 | 1015.0 |
| 20260901161951 | 64 | 153 | 0.0 | 4.3 | 0.00 | 0.00 | 0.00 | 63 | 1014.9 |
| 20260901161453 | 64 | 264 | 0.0 | 2.6 | 0.00 | 0.00 | 0.00 | 63 | 1015.1 |
| 20260901160951 | 64 | 263 | 0.9 | 5.2 | 0.00 | 0.00 | 0.00 | 62 | 1015.1 |
| 20260901160451 | 64 | 246 | 1.7 | 5.2 | 0.00 | 0.00 | 0.00 | 63 | 1015.1 |
| 20260901155950 | 64 | 184 | 0.9 | 4.3 | 0.00 | 0.00 | 0.00 | 63 | 1015.0 |
| 20260901155450 | 64 | 179 | 0.9 | 5.2 | 0.00 | 0.00 | 0.00 | 63 | 1015.0 |
| 20260901154949 | 64 | 262 | 0.9 | 5.2 | 0.00 | 0.00 | 0.00 | 64 | 1014.9 |
| 20260901154449 | 64 | 236 | 0.0 | 3.5 | 0.00 | 0.00 | 0.00 | 64 | 1014.9 |
| 20260901153949 | 64 | 219 | 0.0 | 2.6 | 0.00 | 0.00 | 0.00 | 64 | 1014.8 |
| 20260901153450 | 64 | 234 | 0.9 | 2.6 | 0.00 | 0.00 | 0.00 | 64 | 1014.8 |
| 20260901152949 | 63 | 269 | 0.9 | 2.6 | 0.00 | 0.00 | 0.00 | 64 | 1014.8 |
| 20260901152449 | 63 | 219 | 0.0 | 2.6 | 0.00 | 0.00 | 0.00 | 63 | 1014.6 |
| 20260901151954 | 63 | 223 | 0.0 | 3.5 | 0.00 | 0.00 | 0.00 | 65 | 1014.6 |
| 20260901151950 | 63 | 263 | 0.0 | 1.7 | 0.00 | 0.00 | 0.00 | 64 | 1014.6 |
| 20260901150950 | 63 | 223 | 0.0 | 3.5 | 0.00 | 0.00 | 0.00 | 64 | 1014.6 |
| 20260901150447 | 62 | 248 | 0.9 | 2.6 | 0.00 | 0.00 | 0.00 | 66 | 1014.7 |
| 20260901145948 | 62 | 248 | 0.9 | 2.6 | 0.00 | 0.00 | 0.00 | 65 | 1014.6 |
| 20260901145447 | 62 | 221 | 0.9 | 3.5 | 0.00 | 0.00 | 0.00 | 66 | 1014.5 |
| 20260901144947 | 62 | 226 | 0.9 | 4.3 | 0.00 | 0.00 | 0.00 | 66 | 1014.4 |
| 20260901144447 | 62 | 280 | 0.9 | 4.3 | 0.00 | 0.00 | 0.00 | 66 | 1014.4 |
| 20260901143947 | 62 | 236 | 1.7 | 4.3 | 0.00 | 0.00 | 0.00 | 67 | 1014.4 |
| 20260901143448 | 62 | 231 | 1.7 | 5.2 | 0.00 | 0.00 | 0.00 | 67 | 1014.2 |
| 20260901142952 | 61 | 199 | 1.7 | 7.8 | 0.00 | 0.00 | 0.00 | 68 | 1014.1 |
| 20260901142948 | 62 | 212 | 2.6 | 7.8 | 0.00 | 0.00 | 0.00 | 67 | 1014.2 |
| 20260901142605 | 61 | 164 | 1.7 | 6.1 | 0.00 | 0.00 | 0.00 | 68 | 1014.0 |
| 20260901141445 | 61 | 227 | 2.6 | 6.1 | 0.00 | 0.00 | 0.00 | 68 | 1014.1 |
| 20260901140945 | 61 | 193 | 2.6 | 6.1 | 0.00 | 0.00 | 0.00 | 68 | 1013.9 |
| 20260901140451 | 61 | 202 | 0.9 | 5.2 | 0.00 | 0.00 | 0.00 | 68 | 1013.8 |
| 20260901140445 | 61 | 190 | 1.7 | 6.1 | 0.00 | 0.00 | 0.00 | 68 | 1013.8 |
| 20260901135444 | 61 | 190 | 1.7 | 7.0 | 0.00 | 0.00 | 0.00 | 68 | 1013.6 |
| 20260901134946 | 61 | 182 | 1.7 | 7.0 | 0.00 | 0.00 | 0.00 | 67 | 1013.6 |
| 20260901134445 | 61 | 242 | 0.9 | 6.1 | 0.00 | 0.00 | 0.00 | 67 | 1013.6 |
| 20260901133945 | 61 | 215 | 0.9 | 6.1 | 0.00 | 0.00 | 0.00 | 68 | 1013.6 |
| 20260901133444 | 61 | 213 | 0.9 | 6.1 | 0.00 | 0.00 | 0.00 | 68 | 1013.6 |
| 20260901132942 | 61 | 184 | 0.9 | 3.5 | 0.00 | 0.00 | 0.00 | 68 | 1013.6 |
| 20260901132444 | 61 | 183 | 0.9 | 3.5 | 0.00 | 0.00 | 0.00 | 68 | 1013.4 |
| 20260901131943 | 61 | 219 | 0.9 | 3.5 | 0.00 | 0.00 | 0.00 | 68 | 1013.4 |
| 20260901131444 | 61 | 254 | 0.9 | 4.3 | 0.00 | 0.00 | 0.00 | 68 | 1013.4 |
| 20260901130943 | 61 | 216 | 0.9 | 4.3 | 0.00 | 0.00 | 0.00 | 68 | 1013.4 |
| 20260901130440 | 61 | 212 | 0.0 | 2.6 | 0.00 | 0.00 | 0.00 | 68 | 1013.3 |
| 20260901125942 | 61 | 217 | 0.9 | 4.3 | 0.00 | 0.00 | 0.00 | 68 | 1013.3 |
| 20260901125442 | 61 | 209 | 0.9 | 4.3 | 0.00 | 0.00 | 0.00 | 69 | 1013.3 |
| 20260901124941 | 61 | 180 | 0.0 | 4.3 | 0.00 | 0.00 | 0.00 | 69 | 1013.2 |
| 20260901124441 | 61 | 194 | 0.0 | 1.7 | 0.00 | 0.00 | 0.00 | 69 | 1013.2 |
| 20260901123940 | 61 | 184 | 0.9 | 4.3 | 0.00 | 0.00 | 0.00 | 69 | 1013.2 |
| 20260901123442 | 61 | 205 | 0.9 | 4.3 | 0.00 | 0.00 | 0.00 | 69 | 1013.3 |
| 20260901122941 | 61 | 186 | 0.9 | 4.3 | 0.00 | 0.00 | 0.00 | 70 | 1013.2 |
| 20260901122440 | 61 | 195 | 0.0 | 4.3 | 0.00 | 0.00 | 0.00 | 70 | 1013.1 |
| 20260901121940 | 61 | 232 | 0.0 | 3.5 | 0.00 | 0.00 | 0.00 | 70 | 1013.2 |
| 20260901121442 | 61 | 273 | 0.0 | 0.9 | 0.00 | 0.00 | 0.00 | 70 | 1013.2 |
| 20260901120942 | 61 | 204 | 0.0 | 0.9 | 0.00 | 0.00 | 0.00 | 70 | 1013.1 |
| 20260901120444 | 61 | 194 | 0.9 | 4.3 | 0.00 | 0.00 | 0.00 | 69 | 1013.1 |
| 20260901120440 | 61 | 194 | 0.0 | 2.6 | 0.00 | 0.00 | 0.00 | 70 | 1013.1 |
| 20260901120054 | 61 | 207 | 0.9 | 4.3 | 0.00 | 0.00 | 0.00 | 70 | 1013.2 |
| 20260901114938 | 61 | 269 | 0.0 | 2.6 | 0.00 | 0.00 | 0.00 | 71 | 1013.1 |
| 20260901114438 | 61 | 275 | 0.0 | 2.6 | 0.00 | 0.00 | 0.00 | 70 | 1013.2 |
| 20260901113936 | 61 | 248 | 0.9 | 5.2 | 0.00 | 0.00 | 0.00 | 70 | 1013.3 |
| 20260901113436 | 61 | 241 | 0.9 | 6.1 | 0.00 | 0.00 | 0.00 | 70 | 1013.4 |
| 20260901112940 | 61 | 255 | 0.9 | 6.1 | 0.00 | 0.00 | 0.00 | 70 | 1013.3 |
| 20260901112936 | 61 | 265 | 0.9 | 6.1 | 0.00 | 0.00 | 0.00 | 70 | 1013.4 |
| 20260901111941 | 61 | 288 | 0.9 | 5.2 | 0.00 | 0.00 | 0.00 | 70 | 1013.3 |
| 20260901111935 | 61 | 282 | 0.9 | 6.1 | 0.00 | 0.00 | 0.00 | 70 | 1013.3 |
| 20260901110934 | 61 | 261 | 0.9 | 5.2 | 0.00 | 0.00 | 0.00 | 70 | 1013.6 |
| 20260901110435 | 61 | 286 | 0.0 | 4.3 | 0.00 | 0.00 | 0.00 | 70 | 1013.3 |
| 20260901105934 | 61 | 245 | 0.0 | 4.3 | 0.00 | 0.00 | 0.00 | 70 | 1013.4 |
| 20260901105436 | 61 | 267 | 0.9 | 5.2 | 0.00 | 0.00 | 0.00 | 71 | 1013.4 |
| 20260901104935 | 61 | 238 | 0.9 | 5.2 | 0.00 | 0.00 | 0.00 | 70 | 1013.2 |
| 20260901104434 | 61 | 248 | 0.0 | 4.3 | 0.00 | 0.00 | 0.00 | 71 | 1013.3 |
| 20260901103934 | 61 | 242 | 0.0 | 2.6 | 0.00 | 0.00 | 0.00 | 70 | 1013.2 |
| 20260901103434 | 61 | 259 | 0.9 | 7.0 | 0.00 | 0.00 | 0.00 | 71 | 1013.2 |
| 20260901102940 | 61 | 279 | 0.9 | 6.1 | 0.00 | 0.00 | 0.00 | 73 | 1013.2 |
| 20260901102935 | 61 | 282 | 0.9 | 7.0 | 0.00 | 0.00 | 0.00 | 72 | 1013.2 |
| 20260901101935 | 61 | 279 | 0.9 | 6.1 | 0.00 | 0.00 | 0.00 | 72 | 1013.1 |
| 20260901101435 | 61 | 296 | 0.9 | 5.2 | 0.00 | 0.00 | 0.00 | 72 | 1013.0 |
| 20260901100940 | 61 | 269 | 0.9 | 3.5 | 0.00 | 0.00 | 0.00 | 71 | 1012.9 |
| 20260901100934 | 61 | 267 | 0.9 | 5.2 | 0.00 | 0.00 | 0.00 | 72 | 1013.0 |
| 20260901100550 | 61 | 217 | 0.9 | 3.5 | 0.00 | 0.00 | 0.00 | 71 | 1012.9 |
| 20260901095435 | 61 | 277 | 0.9 | 6.1 | 0.00 | 0.00 | 0.00 | 71 | 1013.0 |
| 20260901094934 | 61 | 266 | 0.9 | 6.1 | 0.00 | 0.00 | 0.00 | 72 | 1013.0 |
| 20260901094435 | 61 | 264 | 0.0 | 3.5 | 0.00 | 0.00 | 0.00 | 72 | 1012.9 |
| 20260901093940 | 61 | 263 | 0.0 | 4.3 | 0.00 | 0.00 | 0.00 | 72 | 1012.9 |
| 20260901093935 | 61 | 260 | 0.0 | 2.6 | 0.00 | 0.00 | 0.00 | 72 | 1012.8 |
| 20260901092935 | 61 | 223 | 0.0 | 4.3 | 0.00 | 0.00 | 0.00 | 72 | 1012.9 |
| 20260901092434 | 61 | 256 | 0.0 | 0.9 | 0.00 | 0.00 | 0.00 | 73 | 1012.9 |
| 20260901091935 | 61 | 256 | 0.0 | 2.6 | 0.00 | 0.00 | 0.00 | 72 | 1012.9 |
| 20260901091434 | 61 | 256 | 0.9 | 3.5 | 0.00 | 0.00 | 0.00 | 72 | 1012.9 |
| 20260901090935 | 61 | 280 | 0.0 | 3.5 | 0.00 | 0.00 | 0.00 | 72 | 1013.0 |
| 20260901090438 | 61 | 241 | 0.0 | 0.9 | 0.00 | 0.00 | 0.00 | 72 | 1013.0 |
| 20260901090433 | 61 | 213 | 0.0 | 0.9 | 0.00 | 0.00 | 0.00 | 73 | 1012.9 |
| 20260901085433 | 61 | 281 | 0.0 | 0.0 | 0.00 | 0.00 | 0.00 | 73 | 1012.9 |
| 20260901084933 | 60 | 281 | 0.0 | 0.0 | 0.00 | 0.00 | 0.00 | 73 | 1013.0 |
| 20260901084433 | 60 | 281 | 0.0 | 0.0 | 0.00 | 0.00 | 0.00 | 73 | 1012.9 |
| 20260901083938 | 61 | 281 | 0.0 | 0.0 | 0.00 | 0.00 | 0.00 | 73 | 1012.8 |
| 20260901083932 | 61 | 281 | 0.0 | 0.0 | 0.00 | 0.00 | 0.00 | 72 | 1012.8 |
| 20260901082932 | 61 | 281 | 0.0 | 0.0 | 0.00 | 0.00 | 0.00 | 72 | 1012.9 |
| 20260901082432 | 61 | 281 | 0.0 | 0.0 | 0.00 | 0.00 | 0.00 | 72 | 1013.0 |
| 20260901081931 | 61 | 281 | 0.0 | 2.6 | 0.00 | 0.00 | 0.00 | 72 | 1012.9 |
| 20260901081431 | 61 | 281 | 0.0 | 5.2 | 0.00 | 0.00 | 0.00 | 72 | 1013.0 |
| 20260901080928 | 61 | 287 | 0.9 | 7.0 | 0.00 | 0.00 | 0.00 | 72 | 1013.0 |
| 20260901080429 | 61 | 289 | 0.9 | 7.0 | 0.00 | 0.00 | 0.00 | 72 | 1013.0 |
| 20260901075930 | 61 | 264 | 0.9 | 6.1 | 0.00 | 0.00 | 0.00 | 72 | 1013.0 |
| 20260901075429 | 61 | 270 | 0.9 | 6.1 | 0.00 | 0.00 | 0.00 | 72 | 1012.9 |
| 20260901074930 | 61 | 267 | 0.0 | 5.2 | 0.00 | 0.00 | 0.00 | 73 | 1012.9 |
| 20260901074426 | 61 | 295 | 0.0 | 3.5 | 0.00 | 0.00 | 0.00 | 73 | 1012.8 |
| 20260901073932 | 61 | 280 | 0.0 | 3.5 | 0.00 | 0.00 | 0.00 | 73 | 1013.0 |
| 20260901073926 | 61 | 299 | 0.9 | 3.5 | 0.00 | 0.00 | 0.00 | 73 | 1012.9 |
| 20260901073424 | 61 | 294 | 0.9 | 2.6 | 0.00 | 0.00 | 0.00 | 73 | 1013.0 |
| 20260901072424 | 61 | 267 | 0.0 | 3.5 | 0.00 | 0.00 | 0.00 | 74 | 1013.0 |
| 20260901071924 | 61 | 313 | 0.0 | 2.6 | 0.00 | 0.00 | 0.00 | 74 | 1013.0 |
| 20260901071425 | 61 | 313 | 0.0 | 0.9 | 0.00 | 0.00 | 0.00 | 74 | 1013.0 |
| 20260901070924 | 61 | 313 | 0.0 | 0.9 | 0.00 | 0.00 | 0.00 | 74 | 1013.0 |
| 20260901070424 | 61 | 313 | 0.0 | 0.9 | 0.00 | 0.00 | 0.00 | 73 | 1012.9 |
| 20260901065925 | 61 | 313 | 0.0 | 0.0 | 0.00 | 0.00 | 0.00 | 74 | 1012.9 |
| 20260901065427 | 61 | 313 | 0.0 | 1.7 | 0.00 | 0.00 | 0.00 | 74 | 1012.9 |
| 20260901065423 | 61 | 313 | 0.0 | 1.7 | 0.00 | 0.00 | 0.00 | 73 | 1012.9 |
| 20260901064421 | 61 | 313 | 0.0 | 1.7 | 0.00 | 0.00 | 0.00 | 75 | 1013.0 |
| 20260901063919 | 61 | 313 | 0.0 | 1.7 | 0.00 | 0.00 | 0.00 | 74 | 1013.0 |
| 20260901063423 | 61 | 313 | 0.0 | 0.9 | 0.00 | 0.00 | 0.00 | 74 | 1013.1 |
| 20260901063418 | 61 | 313 | 0.0 | 0.9 | 0.00 | 0.00 | 0.00 | 74 | 1013.0 |
| 20260901062417 | 61 | 313 | 0.0 | 0.0 | 0.00 | 0.00 | 0.00 | 74 | 1013.1 |
| 20260901061917 | 61 | 313 | 0.0 | 0.9 | 0.00 | 0.00 | 0.00 | 74 | 1013.1 |
| 20260901061415 | 61 | 313 | 0.0 | 0.9 | 0.00 | 0.00 | 0.00 | 74 | 1013.1 |
| 20260901060914 | 61 | 313 | 0.0 | 0.9 | 0.00 | 0.00 | 0.00 | 74 | 1013.1 |
| 20260901060417 | 60 | 313 | 0.0 | 0.9 | 0.00 | 0.00 | 0.00 | 74 | 1013.1 |
| 20260901055916 | 61 | 313 | 0.0 | 0.9 | 0.00 | 0.00 | 0.00 | 75 | 1013.2 |
| 20260901055420 | 60 | 313 | 0.0 | 2.6 | 0.00 | 0.00 | 0.00 | 76 | 1013.2 |
| 20260901055415 | 60 | 313 | 0.0 | 0.9 | 0.00 | 0.00 | 0.00 | 76 | 1013.2 |
| 20260901054416 | 60 | 313 | 0.0 | 2.6 | 0.00 | 0.00 | 0.00 | 76 | 1013.3 |
| 20260901053920 | 60 | 313 | 0.0 | 0.9 | 0.00 | 0.00 | 0.00 | 77 | 1013.2 |
| 20260901053915 | 60 | 313 | 0.0 | 2.6 | 0.00 | 0.00 | 0.00 | 77 | 1013.2 |
| 20260901052915 | 60 | 313 | 0.0 | 0.9 | 0.00 | 0.00 | 0.00 | 77 | 1013.2 |
| 20260901052415 | 60 | 313 | 0.0 | 3.5 | 0.00 | 0.00 | 0.00 | 77 | 1013.2 |
| 20260901051916 | 60 | 313 | 0.0 | 3.5 | 0.00 | 0.00 | 0.00 | 78 | 1013.2 |
| 20260901051414 | 60 | 313 | 0.0 | 2.6 | 0.00 | 0.00 | 0.00 | 78 | 1013.1 |
| 20260901050915 | 59 | 313 | 0.0 | 1.7 | 0.00 | 0.00 | 0.00 | 78 | 1013.1 |
| 20260901050414 | 59 | 313 | 0.0 | 1.7 | 0.00 | 0.00 | 0.00 | 78 | 1013.0 |
| 20260901045913 | 59 | 313 | 0.0 | 0.9 | 0.00 | 0.00 | 0.00 | 77 | 1012.9 |
| 20260901045415 | 59 | 313 | 0.0 | 2.6 | 0.00 | 0.00 | 0.00 | 77 | 1012.8 |
| 20260901044915 | 60 | 313 | 0.0 | 2.6 | 0.00 | 0.00 | 0.00 | 77 | 1012.8 |
| 20260901044412 | 60 | 313 | 0.0 | 1.7 | 0.00 | 0.00 | 0.00 | 76 | 1012.7 |
| 20260901043911 | 60 | 313 | 0.0 | 3.5 | 0.00 | 0.00 | 0.00 | 77 | 1012.7 |
| 20260901043410 | 60 | 313 | 0.9 | 7.0 | 0.00 | 0.00 | 0.00 | 76 | 1012.7 |
| 20260901042909 | 60 | 315 | 1.7 | 7.0 | 0.00 | 0.00 | 0.00 | 76 | 1012.7 |
| 20260901042409 | 60 | 324 | 2.6 | 7.0 | 0.00 | 0.00 | 0.00 | 77 | 1012.7 |
| 20260901041907 | 60 | 331 | 1.7 | 7.8 | 0.00 | 0.00 | 0.00 | 77 | 1012.6 |
| 20260901041408 | 60 | 274 | 1.7 | 7.8 | 0.00 | 0.00 | 0.00 | 77 | 1012.6 |
| 20260901040905 | 60 | 288 | 1.7 | 6.1 | 0.00 | 0.00 | 0.00 | 77 | 1012.5 |
| 20260901040406 | 60 | 323 | 2.6 | 7.0 | 0.00 | 0.00 | 0.00 | 77 | 1012.5 |
| 20260901035902 | 60 | 309 | 1.7 | 7.8 | 0.00 | 0.00 | 0.00 | 78 | 1012.4 |
| 20260901035402 | 61 | 296 | 1.7 | 7.8 | 0.00 | 0.00 | 0.00 | 78 | 1012.4 |
| 20260901034904 | 61 | 288 | 1.7 | 7.8 | 0.00 | 0.00 | 0.00 | 77 | 1012.3 |
| 20260901034402 | 61 | 306 | 0.9 | 7.8 | 0.00 | 0.00 | 0.00 | 77 | 1012.2 |
| 20260901033903 | 61 | 288 | 0.9 | 7.8 | 0.00 | 0.00 | 0.00 | 76 | 1012.2 |
| 20260901033402 | 61 | 312 | 1.7 | 7.0 | 0.00 | 0.00 | 0.00 | 76 | 1012.2 |
| 20260901032903 | 61 | 319 | 1.7 | 7.0 | 0.00 | 0.00 | 0.00 | 76 | 1012.1 |
| 20260901032404 | 61 | 304 | 3.5 | 7.8 | 0.00 | 0.00 | 0.00 | 76 | 1012.0 |
| 20260901031903 | 62 | 294 | 3.5 | 8.7 | 0.00 | 0.00 | 0.00 | 77 | 1011.9 |
| 20260901031403 | 62 | 303 | 2.6 | 8.7 | 0.00 | 0.00 | 0.00 | 75 | 1011.9 |
| 20260901030904 | 62 | 296 | 2.6 | 7.8 | 0.00 | 0.00 | 0.00 | 75 | 1011.8 |
| 20260901030403 | 62 | 296 | 2.6 | 7.8 | 0.00 | 0.00 | 0.00 | 73 | 1011.8 |
| 20260901025910 | 63 | 323 | 1.7 | 7.8 | 0.00 | 0.00 | 0.00 | 73 | 1011.6 |
| 20260901025904 | 62 | 330 | 2.6 | 7.8 | 0.00 | 0.00 | 0.00 | 73 | 1011.7 |
| 20260901024902 | 63 | 310 | 1.7 | 9.6 | 0.00 | 0.00 | 0.00 | 72 | 1011.7 |
| 20260901024403 | 63 | 328 | 2.6 | 9.6 | 0.00 | 0.00 | 0.00 | 73 | 1011.6 |
| 20260901023903 | 63 | 313 | 2.6 | 7.8 | 0.00 | 0.00 | 0.00 | 72 | 1011.7 |
| 20260901023402 | 63 | 310 | 3.5 | 10.4 | 0.00 | 0.00 | 0.00 | 72 | 1011.6 |
| 20260901022904 | 64 | 328 | 2.6 | 10.4 | 0.00 | 0.00 | 0.00 | 71 | 1011.6 |
| 20260901022403 | 64 | 327 | 2.6 | 10.4 | 0.00 | 0.00 | 0.00 | 71 | 1011.6 |
| 20260901021910 | 65 | 286 | 4.3 | 11.3 | 0.00 | 0.00 | 0.00 | 70 | 1011.5 |
| 20260901021903 | 64 | 300 | 3.5 | 10.4 | 0.00 | 0.00 | 0.00 | 71 | 1011.6 |
| 20260901021403 | 64 | 258 | 4.3 | 11.3 | 0.00 | 0.00 | 0.00 | 71 | 1011.5 |
| 20260901020402 | 65 | 300 | 2.6 | 8.7 | 0.00 | 0.00 | 0.00 | 70 | 1011.4 |
| 20260901015903 | 65 | 300 | 3.5 | 11.3 | 0.00 | 0.00 | 0.00 | 69 | 1011.4 |
| 20260901015402 | 65 | 302 | 5.2 | 11.3 | 0.00 | 0.00 | 0.00 | 69 | 1011.4 |
| 20260901014904 | 65 | 355 | 5.2 | 11.3 | 0.00 | 0.00 | 0.00 | 68 | 1011.4 |
| 20260901014407 | 66 | 299 | 4.3 | 10.4 | 0.00 | 0.00 | 0.00 | 68 | 1011.4 |
| 20260901014403 | 66 | 292 | 5.2 | 11.3 | 0.00 | 0.00 | 0.00 | 68 | 1011.4 |
| 20260901013408 | 66 | 310 | 4.3 | 10.4 | 0.00 | 0.00 | 0.00 | 68 | 1011.3 |
| 20260901013403 | 66 | 300 | 4.3 | 10.4 | 0.00 | 0.00 | 0.00 | 67 | 1011.4 |
| 20260901012401 | 66 | 9 | 5.2 | 12.2 | 0.00 | 0.00 | 0.00 | 69 | 1011.3 |
| 20260901011901 | 66 | 17 | 5.2 | 12.2 | 0.00 | 0.00 | 0.00 | 68 | 1011.3 |
| 20260901011406 | 66 | 38 | 6.1 | 13.0 | 0.00 | 0.00 | 0.00 | 67 | 1011.5 |
| 20260901011401 | 66 | 22 | 6.1 | 12.2 | 0.00 | 0.00 | 0.00 | 68 | 1011.5 |
| 20260901011018 | 67 | 355 | 6.1 | 13.0 | 0.00 | 0.00 | 0.00 | 66 | 1011.4 |
| 20260901005856 | 67 | 10 | 4.3 | 11.3 | 0.00 | 0.00 | 0.00 | 66 | 1011.5 |
| 20260901005357 | 67 | 5 | 4.3 | 11.3 | 0.00 | 0.00 | 0.00 | 65 | 1011.5 |
| 20260901004856 | 67 | 329 | 4.3 | 10.4 | 0.00 | 0.00 | 0.00 | 65 | 1011.3 |
| 20260901004358 | 67 | 32 | 4.3 | 12.2 | 0.00 | 0.00 | 0.00 | 66 | 1011.4 |
| 20260901003857 | 68 | 303 | 4.3 | 12.2 | 0.00 | 0.00 | 0.00 | 65 | 1011.4 |
| 20260901003356 | 68 | 312 | 5.2 | 12.2 | 0.00 | 0.00 | 0.00 | 65 | 1011.3 |
| 20260901002856 | 68 | 30 | 5.2 | 12.2 | 0.00 | 0.00 | 0.00 | 65 | 1011.2 |
| 20260901002357 | 68 | 329 | 5.2 | 11.3 | 0.00 | 0.00 | 0.00 | 65 | 1011.3 |
| 20260901001855 | 69 | 34 | 4.3 | 10.4 | 0.00 | 0.00 | 0.00 | 64 | 1011.3 |
| 20260901001355 | 68 | 351 | 5.2 | 13.0 | 0.00 | 0.00 | 0.00 | 64 | 1011.3 |
| 20260901000854 | 68 | 348 | 6.1 | 13.0 | 0.00 | 0.00 | 0.00 | 64 | 1011.2 |
| 20260901000352 | 69 | 74 | 6.1 | 14.8 | 0.00 | 0.00 | 0.00 | 64 | 1011.3 |
| 20260831235852 | 69 | 29 | 6.1 | 14.8 | 0.00 | 0.00 | 0.00 | 64 | 1011.4 |
| 20260831235352 | 69 | 44 | 6.1 | 14.8 | 0.00 | 0.00 | 0.00 | 64 | 1011.4 |
| 20260831234853 | 69 | 15 | 5.2 | 14.8 | 0.00 | 0.00 | 0.00 | 64 | 1011.4 |
| 20260831234351 | 69 | 11 | 5.2 | 12.2 | 0.00 | 0.00 | 0.00 | 63 | 1011.4 |
| 20260831233852 | 69 | 348 | 5.2 | 12.2 | 0.00 | 0.00 | 0.00 | 64 | 1011.4 |
| 20260831233353 | 70 | 355 | 4.3 | 12.2 | 0.00 | 0.00 | 0.00 | 64 | 1011.5 |
| 20260831232853 | 69 | 333 | 5.2 | 12.2 | 0.00 | 0.00 | 0.00 | 64 | 1011.4 |
| 20260831232358 | 70 | 329 | 5.2 | 13.0 | 0.00 | 0.00 | 0.00 | 64 | 1011.5 |
| 20260831232353 | 69 | 316 | 5.2 | 13.0 | 0.00 | 0.00 | 0.00 | 64 | 1011.4 |
| 20260831231352 | 69 | 5 | 5.2 | 12.2 | 0.00 | 0.00 | 0.00 | 66 | 1011.5 |
| 20260831230852 | 69 | 32 | 7.0 | 14.8 | 0.00 | 0.00 | 0.00 | 64 | 1011.5 |
| 20260831230354 | 70 | 5 | 6.1 | 14.8 | 0.00 | 0.00 | 0.00 | 65 | 1011.5 |
| 20260831230350 | 70 | 34 | 5.2 | 12.2 | 0.00 | 0.00 | 0.00 | 63 | 1011.6 |
| 20260831225348 | 71 | 34 | 5.2 | 11.3 | 0.00 | 0.00 | 0.00 | 63 | 1011.6 |
| 20260831224848 | 70 | 351 | 6.1 | 13.0 | 0.00 | 0.00 | 0.00 | 65 | 1011.6 |
| 20260831224354 | 71 | 11 | 7.0 | 15.6 | 0.00 | 0.00 | 0.00 | 63 | 1011.6 |
| 20260831224349 | 70 | 345 | 7.0 | 15.6 | 0.00 | 0.00 | 0.00 | 64 | 1011.5 |
| 20260831223348 | 71 | 63 | 6.1 | 13.9 | 0.00 | 0.00 | 0.00 | 63 | 1011.5 |
| 20260831222853 | 71 | 19 | 6.1 | 15.6 | 0.00 | 0.00 | 0.00 | 64 | 1011.6 |
| 20260831222848 | 70 | 36 | 6.1 | 15.6 | 0.00 | 0.00 | 0.00 | 64 | 1011.6 |
| 20260831221848 | 71 | 26 | 6.1 | 13.9 | 0.00 | 0.00 | 0.00 | 63 | 1011.8 |
| 20260831221349 | 72 | 348 | 6.1 | 13.9 | 0.00 | 0.00 | 0.00 | 63 | 1011.9 |
| 20260831220852 | 71 | 14 | 5.2 | 13.0 | 0.00 | 0.00 | 0.00 | 63 | 1012.0 |
| 20260831220846 | 71 | 44 | 6.1 | 13.9 | 0.00 | 0.00 | 0.00 | 63 | 1011.9 |
| 20260831215846 | 72 | 34 | 5.2 | 13.0 | 0.00 | 0.00 | 0.00 | 62 | 1012.1 |
| 20260831215346 | 73 | 28 | 5.2 | 13.0 | 0.00 | 0.00 | 0.00 | 62 | 1012.0 |
| 20260831214853 | 73 | 35 | 5.2 | 18.2 | 0.00 | 0.00 | 0.00 | 61 | 1012.2 |
| 20260831214848 | 71 | 18 | 6.1 | 13.0 | 0.00 | 0.00 | 0.00 | 63 | 1012.1 |
| 20260831213847 | 73 | 355 | 4.3 | 18.2 | 0.00 | 0.00 | 0.00 | 60 | 1012.2 |
| 20260831213347 | 73 | 17 | 3.5 | 8.7 | 0.00 | 0.00 | 0.00 | 59 | 1012.2 |
| 20260831212847 | 74 | 321 | 3.5 | 8.7 | 0.00 | 0.00 | 0.00 | 61 | 1012.3 |
| 20260831212350 | 73 | 349 | 4.3 | 9.6 | 0.00 | 0.00 | 0.00 | 59 | 1012.5 |
| 20260831212344 | 73 | 331 | 3.5 | 7.8 | 0.00 | 0.00 | 0.00 | 60 | 1012.3 |
| 20260831211343 | 74 | 71 | 4.3 | 9.6 | 0.00 | 0.00 | 0.00 | 62 | 1012.5 |
| 20260831210849 | 72 | 154 | 3.5 | 7.8 | 0.00 | 0.00 | 0.00 | 64 | 1012.6 |
| 20260831210844 | 72 | 42 | 2.6 | 9.6 | 0.00 | 0.00 | 0.00 | 62 | 1012.6 |
| 20260831210500 | 72 | 338 | 3.5 | 8.7 | 0.00 | 0.00 | 0.00 | 62 | 1012.7 |
| 20260831205350 | 73 | 28 | 2.6 | 7.8 | 0.00 | 0.00 | 0.00 | 62 | 1012.8 |
| 20260831205344 | 71 | 355 | 3.5 | 8.7 | 0.00 | 0.00 | 0.00 | 61 | 1012.8 |
| 20260831204349 | 72 | 22 | 3.5 | 10.4 | 0.00 | 0.00 | 0.00 | 63 | 1012.7 |
| 20260831204344 | 71 | 9 | 3.5 | 10.4 | 0.00 | 0.00 | 0.00 | 62 | 1012.8 |
| 20260831204002 | 70 | 330 | 3.5 | 9.6 | 0.00 | 0.00 | 0.00 | 65 | 1012.8 |
| 20260831203458 | 71 | 355 | 5.2 | 9.6 | 0.00 | 0.00 | 0.00 | 62 | 1012.8 |
| 20260831202342 | 72 | 94 | 4.3 | 9.6 | 0.00 | 0.00 | 0.00 | 62 | 1012.8 |
| 20260831201842 | 71 | 34 | 1.7 | 7.0 | 0.00 | 0.00 | 0.00 | 62 | 1012.8 |
| 20260831201343 | 73 | 343 | 1.7 | 7.0 | 0.00 | 0.00 | 0.00 | 61 | 1012.8 |
| 20260831200847 | 71 | 299 | 2.6 | 7.8 | 0.00 | 0.00 | 0.00 | 61 | 1012.9 |
| 20260831200843 | 71 | 307 | 2.6 | 7.0 | 0.00 | 0.00 | 0.00 | 61 | 1012.8 |
| 20260831195843 | 71 | 302 | 2.6 | 7.8 | 0.00 | 0.00 | 0.00 | 62 | 1012.9 |
| 20260831195342 | 71 | 346 | 2.6 | 7.0 | 0.00 | 0.00 | 0.00 | 62 | 1012.9 |
| 20260831194849 | 69 | 291 | 1.7 | 7.0 | 0.00 | 0.00 | 0.00 | 65 | 1013.0 |
| 20260831194843 | 71 | 316 | 1.7 | 7.0 | 0.00 | 0.00 | 0.00 | 63 | 1013.0 |
| 20260831194342 | 70 | 273 | 2.6 | 7.0 | 0.00 | 0.00 | 0.00 | 65 | 1013.0 |
| 20260831193343 | 69 | 311 | 1.7 | 4.3 | 0.00 | 0.00 | 0.00 | 64 | 1013.1 |
| 20260831192842 | 68 | 297 | 2.6 | 7.8 | 0.00 | 0.00 | 0.00 | 68 | 1013.2 |
| 20260831192343 | 68 | 339 | 1.7 | 7.8 | 0.00 | 0.00 | 0.00 | 66 | 1013.2 |
| 20260831191849 | 69 | 322 | 1.7 | 6.1 | 0.00 | 0.00 | 0.00 | 65 | 1013.3 |
| 20260831191842 | 68 | 339 | 1.7 | 7.0 | 0.00 | 0.00 | 0.00 | 66 | 1013.3 |
| 20260831191342 | 68 | 340 | 1.7 | 6.1 | 0.00 | 0.00 | 0.00 | 66 | 1013.3 |
| 20260831190340 | 69 | 341 | 1.7 | 5.2 | 0.00 | 0.00 | 0.00 | 68 | 1013.3 |
| 20260831185840 | 69 | 355 | 2.6 | 6.1 | 0.00 | 0.00 | 0.00 | 66 | 1013.3 |
| 20260831185347 | 67 | 73 | 2.6 | 6.1 | 0.00 | 0.00 | 0.00 | 70 | 1013.4 |
| 20260831185341 | 68 | 70 | 2.6 | 6.1 | 0.00 | 0.00 | 0.00 | 67 | 1013.3 |
| 20260831184345 | 66 | 331 | 2.6 | 6.1 | 0.00 | 0.00 | 0.00 | 70 | 1013.4 |
| 20260831184340 | 67 | 351 | 2.6 | 6.1 | 0.00 | 0.00 | 0.00 | 69 | 1013.4 |
| 20260831183339 | 67 | 39 | 1.7 | 7.8 | 0.00 | 0.00 | 0.00 | 69 | 1013.6 |
| 20260831182841 | 66 | 328 | 1.7 | 7.8 | 0.00 | 0.00 | 0.00 | 71 | 1013.6 |
| 20260831182343 | 66 | 327 | 1.7 | 7.0 | 0.00 | 0.00 | 0.00 | 71 | 1013.7 |
| 20260831182337 | 65 | 325 | 2.6 | 7.0 | 0.00 | 0.00 | 0.00 | 69 | 1013.7 |
| 20260831181338 | 65 | 310 | 1.7 | 7.0 | 0.00 | 0.00 | 0.00 | 71 | 1013.7 |
| 20260831180843 | 65 | 334 | 1.7 | 7.8 | 0.00 | 0.00 | 0.00 | 71 | 1013.7 |
| 20260831180839 | 65 | 302 | 2.6 | 7.8 | 0.00 | 0.00 | 0.00 | 69 | 1013.7 |